STARLINK-4657 (53747 NORAD) Tracking and Keplerian Element Data

This shows tracking and keplerian element data for the satellite.

Feedback or suggestion? Click here.




ElementValue
Catalog53747
NameSTARLINK-4657
Epoch Orbit532
Epoch Day280.79104258
Epoch Year2022
RAAN105.6975
Inclination53.2021
Eccentricity0.0006488
Argument of Perigee273.3589
Mean Anonmoly211.329
Mean Motion16.40200734
Decay Rate0.34711739
L11 53747U 22107AZ 22280.79104258 .34711739 12360-4 24499-2 0 9999
L22 53747 53.2021 105.6975 0006488 273.3589 211.3290 16.40200734 5322



Live tracking and technical data element details for STARLINK-4657 (NORAD 53747). STARLINK-4657 can be tracked NOW for your location showing map with azimuth and elevation plus other details from your city location.







IsCatalogInMostPopularTable: catalog: 53747, numindb: -1

Insert: records affected: 1


GetName: 53747 STARLINK-4657

Hit Count: inserted at: Mon, 28 Nov 2022 05:20:31 GMT